GW7144 Weather Reports


time (UTC)temp
C
wind
direction
speed
KPH
gust
KPH
rain 1hr
cm
rain 24hr
cm
rain mn
cm
humidity
%
barometer
mb
20260507092450 4 111 3.2 4.8 0.00 0.00 0.00 94 1017.8
20260507090945 4 111 3.2 4.8 0.00 0.00 0.00 94 1017.8
20260507085441 4 111 3.2 4.8 0.00 0.00 0.00 94 1017.7
20260507083938 -17 0.0 0.0 0.00 0.00 0.00 1017.9
20260507082438 -17 0.0 0.0 0.00 0.00 0.00 1017.9
20260507080935 5 119 3.2 3.2 0.00 0.00 0.00 91 1017.8
20260507075434 5 119 3.2 3.2 0.00 0.00 0.00 91 1017.8
20260507073931 5 119 3.2 3.2 0.00 0.00 0.00 91 1017.4
20260507072428 5 119 3.2 3.2 0.00 0.00 0.00 91 1017.9
20260507070924 5 112 3.2 3.2 0.00 0.00 0.00 91 1018.0
20260507065421 5 113 3.2 4.8 0.00 0.00 0.00 90 1018.0
20260507063920 5 112 3.2 6.4 0.00 0.00 0.00 90 1018.1
20260507062416 5 110 3.2 3.2 0.00 0.00 0.00 88 1018.2
20260507060916 6 94 3.2 4.8 0.00 0.00 0.00 84 1018.1
20260507055416 6 94 3.2 4.8 0.00 0.00 0.00 84 1018.2
20260507053913 6 94 3.2 4.8 0.00 0.00 0.00 84 1018.4
20260507052411 7 118 1.6 3.2 0.00 0.00 0.00 81 1018.1
20260507050909 7 118 1.6 3.2 0.00 0.00 0.00 81 1018.1
20260507045404 7 118 1.6 3.2 0.00 0.00 0.00 81 1018.2
20260507043900 7 118 1.6 3.2 0.00 0.00 0.00 81 1018.0
20260507042355 8 114 1.6 3.2 0.00 0.00 0.00 75 1018.0
20260507040852 8 114 1.6 3.2 0.00 0.00 0.00 75 1018.1
20260507035350 8 114 1.6 3.2 0.00 0.00 0.00 75 1017.9
20260507033848 8 114 1.6 3.2 0.00 0.00 0.00 75 1017.8
20260507032344 8 95 3.2 3.2 0.00 0.00 0.00 71 1017.7
20260507030840 8 107 3.2 3.2 0.00 0.00 0.00 72 1017.6
20260507025337 9 101 3.2 4.8 0.00 0.00 0.00 71 1017.7
20260507023833 10 97 3.2 3.2 0.00 0.00 0.00 67 1017.5
20260507022329 10 97 3.2 3.2 0.00 0.00 0.00 67 1017.3
20260507020825 11 89 1.6 3.2 0.00 0.00 0.00 64 1017.1
20260507015322 11 89 1.6 3.2 0.00 0.00 0.00 64 1017.2
20260507013817 11 99 3.2 3.2 0.00 0.00 0.00 63 1017.0
20260507012314 12 104 3.2 3.2 0.00 0.00 0.00 59 1016.6
20260507010813 13 108 1.6 3.2 0.00 0.00 0.00 55 1016.4
20260507005309 15 105 3.2 3.2 0.00 0.00 0.00 53 1016.4
20260507003806 16 82 3.2 3.2 0.00 0.00 0.00 45 1016.4
20260507002306 17 55 6.4 6.4 0.00 0.00 0.00 42 1016.4
20260507000801 17 55 6.4 6.4 0.00 0.00 0.00 42 1016.1
20260506235256 17 57 4.8 6.4 0.00 0.00 0.00 41 1015.9
20260506233754 18 123 3.2 3.2 0.00 0.00 0.00 41 1015.6
20260506232253 19 65 3.2 9.7 0.00 0.00 0.00 39 1015.6
20260506230751 19 69 3.2 6.4 0.00 0.00 0.00 38 1015.6
20260506225248 19 349 4.8 6.4 0.00 0.00 0.00 38 1015.4
20260506223744 20 81 3.2 4.8 0.00 0.00 0.00 36 1015.4
20260506222238 19 4 3.2 4.8 0.00 0.00 0.00 40 1015.6
20260506220737 20 4 4.8 8.0 0.00 0.00 0.00 37 1015.6
20260506215236 20 351 6.4 11.3 0.00 0.00 0.00 37 1015.7
20260506213734 20 358 4.8 9.7 0.00 0.00 0.00 38 1015.5
20260506212229 21 9 9.7 9.7 0.00 0.00 0.00 36 1015.7
20260506210725 20 139 3.2 4.8 0.00 0.00 0.00 40 1015.6
20260506205219 20 112 12.9 12.9 0.00 0.00 0.00 37 1015.8
20260506203718 20 13 6.4 6.4 0.00 0.00 0.00 35 1016.1
20260506202214 20 93 8.0 9.7 0.00 0.00 0.00 37 1016.0
20260506200711 18 59 3.2 4.8 0.00 0.00 0.00 42 1016.0
20260506195206 19 131 3.2 8.0 0.00 0.00 0.00 44 1016.2
20260506193704 18 268 6.4 8.0 0.00 0.00 0.00 44 1016.7
20260506192159 19 141 3.2 6.4 0.00 0.00 0.00 41 1016.8
20260506190656 17 100 3.2 4.8 0.00 0.00 0.00 43 1016.8
20260506185152 18 74 3.2 4.8 0.00 0.00 0.00 44 1016.8
20260506183649 18 21 4.8 6.4 0.00 0.00 0.00 38 1017.3
20260506182145 18 85 6.4 11.3 0.00 0.00 0.00 39 1017.4
20260506180643 17 30 3.2 11.3 0.00 0.00 0.00 43 1017.8
20260506175138 17 2 4.8 8.0 0.00 0.00 0.00 41 1017.9
20260506173637 16 66 8.0 9.7 0.00 0.00 0.00 44 1018.0
20260506172133 17 92 3.2 4.8 0.00 0.00 0.00 44 1017.9
20260506170631 16 30 6.4 6.4 0.00 0.00 0.00 45 1018.3
20260506165127 16 37 4.8 6.4 0.00 0.00 0.00 47 1018.1
20260506163623 16 58 4.8 8.0 0.00 0.00 0.00 52 1017.7
20260506162122 16 309 4.8 6.4 0.00 0.00 0.00 48 1017.1
20260506160619 15 49 6.4 8.0 0.00 0.00 0.00 48 1017.0
20260506155116 15 61 8.0 9.7 0.00 0.00 0.00 52 1016.8
20260506152553 15 95 3.2 12.9 0.00 0.00 0.00 50 1017.0
20260506151052 15 55 4.8 6.4 0.00 0.00 0.00 58 1016.9
20260506145547 14 103 4.8 8.0 0.00 0.00 0.00 62 1016.9
20260506144044 13 108 4.8 6.4 0.00 0.00 0.00 67 1016.5
20260506142544 11 115 0.0 6.4 0.00 0.00 0.00 72 1016.7
20260506141043 11 48 1.6 9.7 0.00 0.00 0.00 73 1017.0
20260506135540 10 95 1.6 4.8 0.00 0.00 0.00 78 1017.1
20260506134040 9 68 1.6 3.2 0.00 0.00 0.00 82 1016.9
20260506132538 8 154 1.6 4.8 0.00 0.00 0.00 81 1016.7
20260506131034 8 24 4.8 9.7 0.00 0.00 0.00 81 1016.8
20260506125533 8 70 3.2 3.2 0.00 0.00 0.00 86 1016.6
20260506124031 8 101 3.2 6.4 0.00 0.00 0.00 87 1016.5
20260506122529 8 66 3.2 4.8 0.00 0.00 0.00 88 1016.8
20260506121026 8 68 4.8 6.4 0.00 0.00 0.00 89 1017.1
20260506115525 8 61 3.2 12.9 0.00 0.00 0.00 91 1016.7
20260506114025 7 57 3.2 4.8 0.00 0.00 0.00 91 1016.4
20260506112522 7 46 3.2 4.8 0.00 0.00 0.00 91 1016.2
20260506111020 7 19 4.8 6.4 0.00 0.00 0.00 92 1016.0
20260506105516 7 96 3.2 6.4 0.00 0.00 0.00 92 1015.8
20260506104016 7 65 1.6 3.2 0.00 0.00 0.00 92 1015.1
20260506102514 7 349 3.2 6.4 0.00 0.00 0.00 92 1015.0
20260506101010 7 106 3.2 4.8 0.00 0.00 0.00 92 1015.0
20260506095505 7 39 3.2 3.2 0.00 0.00 0.00 93 1014.6
20260506094002 7 77 1.6 4.8 0.00 0.00 0.00 92 1014.5